Location: Monroe
(41.9160°N, 83.3980°W)
Time: 12:43:04
(UTC-04:00)

Daily predictions for brighter satellites

Satellite Brightness Start Highest point End
(mag) Time Altitude Azimuth Time Altitude Azimuth Time Altitude Azimuth
BREEZE-M DEB (TANK) 4.2 21:18:17 10° WNW 21:22:09 75° SSW 21:35:21 10° ESE
OAO 2 Rocket 4.2 21:21:17 10° SW 21:25:32 29° SSE 21:29:49 10° ESE
Cosmos 2315 Rocket 4.1 21:20:43 10° S 21:26:59 86° E 21:33:21 10° N
CZ-3A R/B 3.0 21:29:36 10° S 21:31:23 12° SSE 21:32:42 10° SE
Cosmos 2074 Rocket 4.4 21:26:18 10° N 21:32:16 45° ENE 21:38:13 10° SSE
Cosmos 1536 Rocket 3.6 21:28:31 10° S 21:32:45 56° E 21:36:59 10° NNE
Cosmos 1437 2.9 21:31:44 10° S 21:34:51 50° E 21:38:00 10° NNE
CZ-4B DEB 2.7 21:32:39 10° SSE 21:35:36 59° ENE 21:38:33 10° N
Helios 1A 3.0 21:31:31 10° SSE 21:35:44 86° ENE 21:39:58 10° NNW
Lacrosse 5 rocket 4.4 21:33:07 10° WNW 21:36:02 17° NNW 21:39:00 10° NNE
Meteor 1-29 2.9 21:36:48 10° NNE 21:40:09 61° ESE 21:43:28 10° S
SJ-11-01 4.3 21:38:12 10° SSE 21:42:53 84° ENE 21:47:36 10° NNW
Cosmos 1656 Rocket 3.7 21:38:57 10° NNW 21:44:23 66° ENE 21:49:50 10° SSE
Cosmos 2369 Rocket 4.0 21:40:22 10° NW 21:45:10 29° WSW 21:49:58 10° SSW
YAOGAN 6 2.8 21:42:20 10° SSE 21:45:43 50° ENE 21:49:08 10° N
SAR-Lupe-4 3.6 21:42:21 10° SSE 21:45:56 85° W 21:49:32 10° NNW
ERS-1 Rocket 3.4 21:41:46 10° SE 21:46:32 47° ENE 21:51:20 10° N
Cosmos 1544 Rocket 4.3 21:45:22 10° NNW 21:49:36 55° W 21:53:48 10° S
Cosmos 1818 3.7 21:44:53 10° SSW 21:50:19 86° WNW 21:55:49 10° NNE
RESURS DK-1 3.9 21:47:57 10° SW 21:51:52 41° WNW 21:55:48 10° NNE
Cosmos 405 Rocket 2.7 21:48:12 10° S 21:51:52 59° E 21:55:38 10° NNE
Resurs 01 Rocket 3.9 21:51:17 10° SSW 21:54:51 24° W 21:58:27 10° NW
NOSS 2-2 (D) 3.4 21:51:30 10° SSW 21:55:27 77° ESE 22:00:00 10° NE
H-2A R/B 3.5 21:52:51 11° ESE 21:56:18 21° ENE 21:59:57 10° NNE
Cosmos 1975 3.9 21:53:38 10° NNW 21:57:33 47° W 22:01:27 10° SSW
Cosmos 2112 Rocket 4.2 21:55:01 10° S 22:00:01 49° ESE 22:05:01 10° NNE
Cosmos 1943 Rocket 3.3 21:55:09 10° NW 22:00:21 40° WSW 22:05:29 10° S
Cosmos 773 Rocket 4.4 21:55:42 10° SSW 22:00:48 66° WNW 22:05:56 10° NNE
CENTAUR R/B 3.2 21:53:42 10° NW 22:01:40 89° SW 22:09:18 13° SSE
Cosmos 1025 Rocket 3.8 21:58:34 13° SSE 22:01:47 31° E 22:05:35 10° NNE
USA 81 4.3 21:58:29 10° S 22:03:45 73° W 22:09:03 10° N
Cosmos 1441 Rocket 3.6 22:01:18 11° SSE 22:04:38 42° E 22:08:10 10° NNE
Meteor 1-13 Rocket 4.4 22:00:34 10° S 22:06:31 89° E 22:12:28 10° N
Nadezhda 1 Rocket 4.1 22:01:38 10° S 22:07:51 61° E 22:14:09 10° NNE
PSLV R/B 2.9 22:05:15 10° W 22:08:23 77° S 22:10:40 17° E
Helios 1B rocket 3.6 22:06:34 10° N 22:10:31 45° WNW 22:14:28 10° SW
NOAA 11 4.3 22:07:47 14° SSE 22:12:29 65° ENE 22:17:52 10° N
Cosmos 1939 Rocket 3.9 22:09:14 10° S 22:12:53 40° W 22:16:34 10° NNW
NOSS 2-2 (C) 3.8 22:10:15 10° SW 22:14:15 69° NW 22:18:52 10° NNE
Cosmos 2154 Rocket 4.3 22:09:31 10° N 22:15:43 51° ENE 22:20:26 17° SSE
COSMOS 2455 3.9 22:10:46 10° NW 22:16:18 39° WSW 22:21:48 10° S
COSMOS 2406 3.2 22:10:40 10° SSW 22:16:24 88° ESE 22:22:09 10° NNE
SL-08 RB Rocket 4.4 22:14:43 19° SE 22:17:25 37° ENE 22:21:33 10° N
ARGOS 3.5 22:13:33 17° SE 22:17:33 52° ENE 22:22:49 10° N
Cosmos 374 Rocket 4.4 22:14:07 10° NW 22:17:53 69° SW 22:20:28 20° SSE
SL-27 R/B 2.6 22:14:40 10° S 22:18:15 57° ESE 22:21:51 10° NNE
Cosmos 1680 Rocket 3.5 22:18:20 10° SSW 22:23:34 87° WNW 22:28:49 10° NNE
SPOT 5 2.8 22:23:05 22° SE 22:25:41 55° ENE 22:29:56 10° N
Cosmos 2056 Rocket 4.2 22:21:26 10° N 22:26:18 39° ENE 22:29:10 21° ESE
Cosmos 1346 4.0 22:24:01 10° SSW 22:26:40 42° WNW 22:29:20 10° N
H-2A R/B 3.9 22:24:49 14° E 22:26:50 19° ENE 22:30:00 10° NNE
Cosmos 2082 Rocket 3.7 22:28:02 17° ESE 22:28:40 17° E 22:32:12 10° ENE
Cosmos 1743 4.0 22:25:05 10° NNW 22:28:44 40° W 22:32:23 10° SSW
Cosmos 405 2.9 22:29:36 10° N 22:33:10 84° ENE 22:34:57 28° SSE
Terra 3.1 22:37:11 20° ESE 22:39:11 26° ENE 22:43:07 10° N
ASTEX 1 4.0 22:36:30 11° S 22:41:13 56° W 22:46:02 10° NNW
Cosmos 2341 Rocket 4.1 22:37:33 10° N 22:43:51 62° E 22:47:39 25° SSE
MetOp-B 4.3 22:40:01 18° S 22:43:59 73° WSW 22:49:21 10° NNW
Tiangong 2 1.1 22:42:22 10° WSW 22:45:28 53° SSE 22:45:36 52° SSE
COSMOS 2487 4.2 22:47:21 20° E 22:47:21 20° E 22:49:16 10° NE
SPOT 1/Viking Rocket 3.6 22:44:17 27° SSE 22:47:06 68° ENE 22:52:15 10° N
Cosmos 1437 Rocket 2.6 22:44:15 10° N 22:48:04 72° E 22:49:25 38° SSE
Okean 1-7 Rocket 4.0 22:46:16 11° SSW 22:50:25 63° W 22:54:54 10° N
Okean 2 3.3 22:50:04 24° S 22:52:28 87° W 22:56:35 10° N
Cosmos 1697 Rocket 4.2 22:48:57 10° N 22:53:32 25° NE 22:56:25 17° E
Cosmos 1238 Rocket 4.5 22:47:41 10° SSW 22:54:20 66° W 23:00:55 10° N
Aureole 1 Rocket 3.9 22:53:08 10° SW 22:56:12 33° WNW 22:59:00 10° N
IGS 5A 4.4 22:56:43 29° E 22:57:42 33° ENE 23:01:27 10° N
ISS -3.9 22:54:35 10° SW 22:57:52 88° SSE 23:01:10 10° NE
DNEPR-1 R/B 4.5 22:58:46 10° NW 23:02:46 39° WSW 23:04:38 26° SSW
Cosmos 1892 Rocket 3.5 23:01:37 35° S 23:03:26 76° E 23:07:52 10° NNE
Cosmos 1371 Rocket 4.1 23:00:19 10° NNW 23:05:38 73° WSW 23:08:06 32° S
Cosmos 2228 3.2 23:01:44 10° N 23:05:59 53° E 23:06:54 43° ESE
OAO 2 Rocket 3.8 23:05:10 10° WSW 23:09:45 38° S 23:10:01 37° S
deb Chang Zheng 4 4.1 23:07:14 10° NNE 23:11:17 39° E 23:11:26 38° ESE
Cosmos 921 Rocket 3.1 23:07:16 10° NNW 23:11:46 69° ENE 23:12:53 48° SE
Cosmos 1833 Rocket 3.2 23:11:23 35° SE 23:12:13 36° ESE 23:17:19 10° NE
Cosmos 1656 4.2 23:09:03 10° NNW 23:14:19 46° ENE 23:16:17 33° ESE
USA 245 4.1 23:16:10 25° WSW 23:16:14 25° W 23:18:25 10° NW
Cosmos 1066 Rocket 4.3 23:15:05 39° SSE 23:16:50 55° E 23:22:16 10° NNE
Cosmos 2181 Rocket 4.0 23:13:08 24° S 23:17:13 90° ENE 23:23:34 10° N
Cosmos 1606 Rocket 4.0 23:12:59 10° NNW 23:17:13 56° W 23:18:50 34° SSW
SL-19 R/B 4.2 23:16:10 10° NNE 23:21:27 56° E 23:22:49 43° SSE
CZ-4 R/B 4.2 23:21:00 10° NNE 23:25:51 47° E 23:26:30 44° ESE
OE (NEXTSAT) 4.4 23:22:32 10° WNW 23:26:06 76° NNE 23:26:09 75° NNE
Cosmos 1726 Rocket 4.1 23:23:58 10° NNW 23:28:10 51° W 23:29:30 36° SW
Cosmos 1515 4.5 23:28:01 33° SW 23:29:15 47° W 23:32:56 10° N
Meteor 1-4 Rocket 2.9 23:27:05 10° N 23:30:20 51° NE 23:30:20 51° NE
Cosmos 1809 Rocket 4.4 23:24:51 10° N 23:30:55 67° E 23:32:56 43° SSE
USA 267 3.5 23:26:10 10° ENE 23:32:23 44° SE 23:34:02 38° SSE
Cosmos 2058 Rocket 3.4 23:30:28 10° NNW 23:34:49 61° W 23:35:51 46° SSW
H-2A R/B 2.6 23:33:29 32° SSW 23:35:21 48° W 23:40:12 10° NNW
CARTOSAT-1 3.5 23:36:38 64° S 23:37:16 82° WSW 23:41:37 10° NNW
Cosmos 1980 Rocket 3.3 23:35:25 10° N 23:40:33 34° ENE 23:42:26 27° E
DMSP B5D2-2 4.4 23:39:48 10° N 23:45:03 65° WNW 23:47:34 31° SW
SeaSat 1 4.0 23:46:39 21° E 23:48:23 25° NE 23:52:24 10° N
Cosmos 2322 Rocket 4.4 23:44:56 10° N 23:48:31 17° NE 23:51:42 11° E
Cosmos 864 Rocket 4.4 23:43:17 10° N 23:49:38 85° E 23:51:34 48° SSE
